Location: Carnetin
(48.9010°N, 2.7059°E)
Time: 04:55:36
(UTC+00:00)

USA 229 - Pass Details

Date: 01 June 2022
Orbit: 938 x 1274 km, 63.4° (Epoch: 24 May)

Event Time Altitude Azimuth Distance (km) Brightness Sun altitude
Rises 21:37:27 0° 316° (NW) 3,912 8.4 -13.3°
Reaches altitude 10° 21:40:06 10° 321° (NW) 3,001 7.5 -13.5°
Maximum altitude 21:47:14 59° 40° (NE) 1,359 4.3 -14.1°
Enters shadow 21:54:23 12° 118° (ESE) 3,048 5.6 -14.6°
